Dauntless Aviation
Greetings, Guest! To participate, [sign up for a free account] or [log in]
Airports North America Canada
CYLW
YLW

Kelowna International Airport

Kelowna, BC, CANADA

Airport Info
Edit

Location

Latitude / Longitude: 49°53'0"N / 119°29'35"W
  49°53.016'N / 119°29.598'W
  49.8836 / -119.4933

Nearby radio navigation aids

EX RUTLAND NDB. 335.5° 1.0nm from EX to field.
LW KELOWNA NDB. 147.1° 6.5nm from LW to field.

Runway Information

Runway 16 /34

Dimensions: 7300 x 200 ft.
Surface: ASP
 
Runway 16
Runway 34
Latitude: 49.966 49.946278
Longitude: -119.378961 -119.376461
Elevation: 1409 ft. 1409 ft.
Runway true heading: 166.6 346.6
 

Instrument Procedures

  Aerodrome Chart
  Parking Areas
  CAC: Aerodrome Chart
  CAC: Parking Areas - Apron I
  CAC: Parking Areas - Apron III

IAPs (Instrument Approach Procedures)

  CFS: KELOWNA VFR Terminal Procedures Chart
  CFS: KELOWNA VFR Terminal Procedures Chart - Night Circuit Procedure
  CFS: Aerodrome Information
  CFS: Aerodrome Information (Part 2)
  DATBO ONE ARR (DATBO.DATBO 1)
  LENUR ONE ARR (LENUR.LENUR 1)
  RNAV (GNSS) A
  NDB B (GNSS)
  ILS/DME 1 Rwy 16
  Night Circuit Procedures
  KELOWNA FIVE DEP (YLW 5.)

Departure Procedures

  Departure Procedure
Satellite photo at:
Airport distance calculator
From:
Weather Reports

METAR

CYLW

CYLW 310100Z AUTO 00000KT 9SM SCT095 19/03 A2979 RMK SLP091 DENSITY ALT 2300FT
CWUS
20.0nm S
CWUS 310100Z AUTO 17013G21KT 18/04 RMK AO1 PK WND 18025/0037 SLP091 T01780035 56021
CWJV
21.6nm N
CWJV 310100Z AUTO 10004KT 17/09 RMK AO1 SLP090 T01740092 57026
CYYF
25.3nm S
CYYF 310100Z 18017KT 15SM FEW070 SCT160 BKN220 18/06 A2981 RMK AC1AC2CI3 SLP097 DENSITY ALT 1800FT

TAF

CYLW
TAF CYLW 310038Z 3101/3113 VRB03KT P6SM FEW080 SCT180 TEMPO 3109/3113 BKN080 RMK FCST BASED ON AUTO OBS. NXT FCST BY 310700Z
CYYF
25.3nm S
TAF CYYF 310038Z 3101/3113 18015G25KT P6SM FEW090 SCT160 BECMG 3103/3105 18008KT FM310700 18008KT P6SM SCT090 BKN160 TEMPO 3109/3113 BKN080 OVC160 RMK NXT FCST BY 310700Z
Safelog

 

Dauntless Aviation

© 2007-2015 Dauntless Aviation, all rights reserved
Information provided via PilotNav comes from a variety of official and unofficial data sources. As errors are possible, do not use PilotNav for primary flight planning purposes. Verify any information that you receive via PilotNav with current and canonical charts and other official documents. The material in this database is subject to database copyrights held by Dauntless Aviation and may not be copied without the express permission of Dauntless Aviation - licenses for use of part of all of this data are available for purchase; enquire via the Dauntless Aviation helpdesk. A number of mechanisms and markers exist in the database to protect against and identify infringement / copyright. Automated queries against this website are stictly prohibited, and all activity is logged and analyzed.